DW4682 Rouen FR current weather conditions

sailwx.info

Wind from 090 at 1 knots gusting 2

Air temperature 10.6° C
Dewpoint 7.6° C

Last reported at 2019-Sep-18 02:01 UTC.
Time now 2019-Sep-18 02:53 UTC

Location: N 49°11' E 000°53'.
View on Google Maps.

See reports from other nearby stations

  
Tides and Currents Weather Stations Pressure Air Temp Water Temp Dewpoint Dewpoint Depression Visibility Wind Speed Wind Dir Waves Ship Positions
date/time (UTC)wind fromknots sea level pressurealtimeterstation pressurevisibilityair tempwater tempwave heightnotes
2019-Sep-18 02:31 113 2 gusting 3 10.6
2019-Sep-18 02:26 090 2 gusting 2 10.6
2019-Sep-18 02:21 068 2 gusting 3 10.6
2019-Sep-18 02:16 113 2 gusting 3 10.6
2019-Sep-18 02:11 090 2 gusting 2 10.6
2019-Sep-18 02:06 090 1 gusting 2 10.6
2019-Sep-18 02:01 090 1 gusting 2 10.6
2019-Sep-18 01:56 113 2 gusting 2 10.6
2019-Sep-18 01:51 090 2 gusting 2 10.6
2019-Sep-18 01:46 090 2 gusting 2 10.6
2019-Sep-18 01:41 090 3 gusting 3 10.6
2019-Sep-18 01:35 090 3 gusting 4 11.1
2019-Sep-18 01:30 068 3 gusting 3 11.1
2019-Sep-18 01:25 084 3 gusting 5 11.1
2019-Sep-18 01:20 090 3 gusting 3 11.1
2019-Sep-18 01:15 068 3 gusting 3 11.1
2019-Sep-18 01:09 090 3 gusting 3 11.1
2019-Sep-18 01:04 068 3 gusting 3 11.1
2019-Sep-18 00:59 068 3 gusting 3 11.1
2019-Sep-18 00:54 045 3 gusting 4 11.1
2019-Sep-18 00:49 090 3 gusting 4 11.1
2019-Sep-18 00:44 090 3 gusting 3 11.1
2019-Sep-18 00:39 068 3 gusting 3 11.1
2019-Sep-18 00:34 045 3 gusting 5 11.7
2019-Sep-18 00:29 090 3 gusting 3 11.7
2019-Sep-18 00:24 068 3 gusting 3 11.7
2019-Sep-18 00:18 090 3 gusting 3 11.7
2019-Sep-18 00:13 090 3 gusting 4 11.7
2019-Sep-18 00:08 090 4 gusting 5 11.7
2019-Sep-18 00:03 068 4 gusting 5 11.7
2019-Sep-17 23:58 068 3 gusting 4 11.7
2019-Sep-17 23:53 068 3 gusting 4 11.7
2019-Sep-17 23:48 113 3 gusting 3 11.7
2019-Sep-17 23:43 090 3 gusting 3 11.7
2019-Sep-17 23:37 068 4 gusting 4 12.2
2019-Sep-17 23:32 090 3 gusting 5 12.2
2019-Sep-17 23:27 068 3 gusting 5 12.2
2019-Sep-17 23:22 068 3 gusting 3 12.2
2019-Sep-17 23:17 068 4 gusting 4 12.2
2019-Sep-17 23:12 068 4 gusting 4 12.2
2019-Sep-17 23:07 113 4 gusting 4 12.2
2019-Sep-17 23:02 068 4 gusting 6 12.8
2019-Sep-17 22:57 023 4 gusting 5 12.8
2019-Sep-17 22:51 023 4 gusting 4 12.8
2019-Sep-17 22:46 090 4 gusting 5 12.8
2019-Sep-17 22:41 090 4 gusting 5 12.8
2019-Sep-17 22:36 090 4 gusting 4 12.8
2019-Sep-17 22:31 090 4 gusting 6 12.8
2019-Sep-17 22:26 068 4 gusting 4 12.8
2019-Sep-17 22:21 090 4 gusting 5 12.8
2019-Sep-17 22:16 090 4 gusting 8 12.8
2019-Sep-17 22:11 045 5 gusting 5 13.3
2019-Sep-17 22:05 068 5 gusting 5 13.3
2019-Sep-17 21:59 090 5 gusting 5 13.3
2019-Sep-17 21:54 090 5 gusting 6 13.3
2019-Sep-17 21:49 068 4 gusting 6 13.3
2019-Sep-17 21:44 090 4 gusting 4 13.3
2019-Sep-17 21:39 068 4 gusting 5 13.3
2019-Sep-17 21:34 113 4 gusting 6 13.3
2019-Sep-17 21:28 090 3 gusting 3 13.3
2019-Sep-17 21:23 068 3 gusting 4 13.9
2019-Sep-17 21:18 090 4 gusting 4 13.9
2019-Sep-17 21:13 090 4 gusting 4 13.9
2019-Sep-17 21:09 068 4 gusting 5 13.9
2019-Sep-17 21:04 068 5 gusting 5 13.9
2019-Sep-17 20:59 023 5 gusting 6 13.9
2019-Sep-17 20:54 045 4 gusting 7 13.9
2019-Sep-17 20:49 090 4 gusting 6 13.9
2019-Sep-17 20:43 045 4 gusting 6 14.4
2019-Sep-17 20:37 090 4 gusting 6 14.4
2019-Sep-17 20:32 090 5 gusting 6 14.4
2019-Sep-17 20:27 090 5 gusting 5 14.4
2019-Sep-17 20:22 068 5 gusting 10 14.4
2019-Sep-17 20:17 068 4 gusting 7 14.4
2019-Sep-17 20:12 068 4 gusting 5 14.4
2019-Sep-17 20:07 045 3 gusting 4 14.4
2019-Sep-17 20:02 023 3 gusting 5 14.4
2019-Sep-17 19:56 045 3 gusting 3 14.4
2019-Sep-17 19:51 045 3 gusting 3 14.4
2019-Sep-17 19:47 14.4
2019-Sep-17 19:41 045 3 gusting 6 14.4
2019-Sep-17 19:36 045 3 gusting 3 14.4
2019-Sep-17 19:31 045 3 gusting 3 15.0
2019-Sep-17 19:26 090 3 gusting 4 15.0
2019-Sep-17 19:20 045 3 gusting 5 15.0
2019-Sep-17 19:15 023 3 gusting 3 15.0
2019-Sep-17 19:10 068 3 gusting 3 15.0
2019-Sep-17 19:05 023 3 gusting 3 15.6
2019-Sep-17 19:00 045 3 gusting 4 15.6
2019-Sep-17 18:55 045 3 gusting 3 15.6
2019-Sep-17 18:50 020 3 gusting 5 15.6
2019-Sep-17 18:45 068 3 gusting 3 15.6
2019-Sep-17 18:40 15.6
2019-Sep-17 18:35 023 3 gusting 4 16.1
2019-Sep-17 18:29 16.1
2019-Sep-17 18:24 023 3 gusting 3 16.1
2019-Sep-17 18:19 16.7
2019-Sep-17 18:14 023 3 gusting 6 16.7
2019-Sep-17 18:09 023 3 gusting 6 16.7
2019-Sep-17 18:04 045 3 gusting 3 17.2
2019-Sep-17 17:59 023 3 gusting 3 17.2
2019-Sep-17 17:54 045 3 gusting 5 17.2
2019-Sep-17 17:49 023 3 gusting 5 17.8
2019-Sep-17 17:44 023 3 gusting 3 17.8
2019-Sep-17 17:38 023 3 gusting 4 17.8
2019-Sep-17 17:33 045 3 gusting 3 18.3
2019-Sep-17 17:28 18.3
2019-Sep-17 17:23 045 4 gusting 4 18.9
2019-Sep-17 17:18 18.9
2019-Sep-17 17:13 18.9
2019-Sep-17 17:08 338 5 gusting 5 19.4
2019-Sep-17 17:03 19.4
2019-Sep-17 16:58 20.0
2019-Sep-17 16:53 315 4 gusting 4 20.0
2019-Sep-17 16:48 20.0
2019-Sep-17 16:43 023 4 gusting 6 20.0
2019-Sep-17 16:38 20.6
2019-Sep-17 16:32 315 5 gusting 5 20.6
2019-Sep-17 16:27 20.6
2019-Sep-17 16:22 20.6
2019-Sep-17 16:17 338 5 gusting 5 21.1
2019-Sep-17 16:12 338 4 gusting 6 21.1
2019-Sep-17 16:07 315 3 gusting 3 21.1
2019-Sep-17 16:02 338 3 gusting 6 21.1
2019-Sep-17 15:57 338 3 gusting 3 21.1
2019-Sep-17 15:52 023 3 gusting 3 21.1
2019-Sep-17 15:47 338 4 gusting 4 21.1
2019-Sep-17 15:42 270 4 gusting 4 21.7
2019-Sep-17 15:37 21.7
2019-Sep-17 15:32 338 3 gusting 3 21.7
2019-Sep-17 15:27 338 3 gusting 3 21.1
2019-Sep-17 15:22 338 3 gusting 5 21.1
2019-Sep-17 15:17 023 3 gusting 3 21.1
2019-Sep-17 15:12 21.1
2019-Sep-17 15:07 315 4 gusting 4 21.1
2019-Sep-17 15:02 315 4 gusting 5 21.1
2019-Sep-17 14:57 338 3 gusting 7 21.1
2019-Sep-17 14:55 023 3 gusting 3 21.7
2019-Sep-17 14:50 068 3 gusting 3 21.1
2019-Sep-17 14:44 045 4 gusting 4 21.1
2019-Sep-17 14:39 023 4 gusting 4 21.1
2019-Sep-17 14:34 21.7
2019-Sep-17 14:29 023 3 gusting 4 21.7
2019-Sep-17 14:24 21.7
2019-Sep-17 14:19 113 4 gusting 4 21.7
2019-Sep-17 14:14 023 4 gusting 5 21.7
2019-Sep-17 14:09 045 4 gusting 4 21.7
2019-Sep-17 14:04 21.7
2019-Sep-17 13:58 21.7
2019-Sep-17 13:53 023 4 gusting 5 21.7
2019-Sep-17 13:48 338 4 gusting 8 21.7
2019-Sep-17 13:43 338 4 gusting 4 21.7
2019-Sep-17 13:38 338 4 gusting 5 21.7
2019-Sep-17 13:33 21.7
2019-Sep-17 13:28 135 3 gusting 5 21.7
2019-Sep-17 13:23 090 4 gusting 4 21.1
2019-Sep-17 13:17 21.7
2019-Sep-17 13:12 21.7
2019-Sep-17 13:07 338 4 gusting 6 21.7
2019-Sep-17 13:02 023 5 gusting 6 21.1
2019-Sep-17 12:57 338 4 gusting 6 21.1
2019-Sep-17 12:52 045 3 gusting 4 20.6
2019-Sep-17 12:47 338 4 gusting 4 21.1
2019-Sep-17 12:42 315 4 gusting 5 21.1
2019-Sep-17 12:37 293 4 gusting 4 21.1
2019-Sep-17 12:31 338 4 gusting 6 21.1
2019-Sep-17 12:26 21.1
2019-Sep-17 12:21 338 3 gusting 5 20.6
2019-Sep-17 12:16 045 3 gusting 3 20.6
2019-Sep-17 12:11 045 4 gusting 4 21.1
2019-Sep-17 12:06 023 4 gusting 6 21.1
2019-Sep-17 12:01 045 3 gusting 6 21.1
2019-Sep-17 11:56 068 3 gusting 6 20.6
2019-Sep-17 11:51 023 2 gusting 6 20.6
2019-Sep-17 11:45 023 2 gusting 2 20.6
2019-Sep-17 11:40 068 2 gusting 3 20.6
2019-Sep-17 11:35 338 3 gusting 4 20.0
2019-Sep-17 11:30 20.6
2019-Sep-17 11:25 293 3 gusting 5 21.1
2019-Sep-17 11:20 315 3 gusting 3 21.1
2019-Sep-17 11:15 068 3 gusting 3 20.6
2019-Sep-17 11:09 090 3 gusting 4 20.6
2019-Sep-17 11:04 045 2 gusting 2 20.6
2019-Sep-17 10:59 338 2 gusting 2 20.6
2019-Sep-17 10:55 014 2 gusting 6 20.0
2019-Sep-17 10:50 045 3 gusting 3 20.0
2019-Sep-17 10:45 338 3 gusting 3 20.0
2019-Sep-17 10:40 315 3 gusting 3 20.0
2019-Sep-17 10:35 20.0
2019-Sep-17 10:29 19.4
2019-Sep-17 10:24 023 3 gusting 3 19.4
2019-Sep-17 10:19 045 3 gusting 5 19.4
2019-Sep-17 10:14 023 3 gusting 3 19.4
2019-Sep-17 10:09 338 3 gusting 6 19.4
2019-Sep-17 10:04 19.4
2019-Sep-17 09:59 19.4
2019-Sep-17 09:54 19.4
2019-Sep-17 09:49 023 2 gusting 2 19.4
2019-Sep-17 09:44 068 3 gusting 3 19.4
2019-Sep-17 09:39 338 3 gusting 3 19.4
2019-Sep-17 09:34 023 2 gusting 4 19.4
2019-Sep-17 09:29 023 2 gusting 2 20.0
2019-Sep-17 09:22 135 2 gusting 3 19.4
2019-Sep-17 09:18 068 2 gusting 2 19.4
2019-Sep-17 09:13 023 3 gusting 3 19.4
2019-Sep-17 09:08 045 3 gusting 3 19.4
2019-Sep-17 09:03 19.4
2019-Sep-17 08:58 045 3 gusting 4 19.4
2019-Sep-17 08:53 068 3 gusting 5 19.4
2019-Sep-17 08:48 068 2 gusting 5 18.9
2019-Sep-17 08:43 113 3 gusting 3 18.9
2019-Sep-17 08:38 113 3 gusting 3 18.9
2019-Sep-17 08:33 045 3 gusting 5 18.9
2019-Sep-17 08:28 045 2 gusting 4 18.9
2019-Sep-17 08:23 023 2 gusting 2 18.3
2019-Sep-17 08:18 023 2 gusting 4 18.3
2019-Sep-17 08:13 090 2 gusting 3 18.3
2019-Sep-17 08:08 045 2 gusting 2 18.3
2019-Sep-17 08:03 18.3
2019-Sep-17 07:58 045 2 gusting 3 18.3
2019-Sep-17 07:53 18.3
2019-Sep-17 07:47 090 2 gusting 2 17.8
2019-Sep-17 07:42 090 2 gusting 2 17.8
2019-Sep-17 07:37 113 2 gusting 2 17.8
2019-Sep-17 07:32 068 2 gusting 6 17.2
2019-Sep-17 07:28 090 2 gusting 2 17.2
2019-Sep-17 07:22 090 2 gusting 3 17.2
2019-Sep-17 07:17 090 3 gusting 4 17.2
2019-Sep-17 07:13 090 3 gusting 4 17.2
2019-Sep-17 07:05 090 3 gusting 5 16.7
2019-Sep-17 07:04 113 2 gusting 3 16.7
2019-Sep-17 06:59 090 2 gusting 3 16.7
2019-Sep-17 06:53 090 3 gusting 3 16.7
2019-Sep-17 06:48 090 1 gusting 3 16.7
2019-Sep-17 06:41 068 1 gusting 1 16.7
2019-Sep-17 06:38 090 1 gusting 1 16.7
2019-Sep-17 06:32 113 0 gusting 0 16.7
2019-Sep-17 06:27 095 0 gusting 1 16.7
2019-Sep-17 06:21 090 0 gusting 2 16.7
2019-Sep-17 06:20 045 0 gusting 2 16.7
2019-Sep-17 06:14 068 0 gusting 1 16.7
2019-Sep-17 06:09 090 1 gusting 1 16.7
2019-Sep-17 06:03 045 1 gusting 2 16.7
2019-Sep-17 05:58 045 1 gusting 1 16.7
2019-Sep-17 05:52 023 1 gusting 2 16.7
2019-Sep-17 05:47 045 1 gusting 2 16.7
2019-Sep-17 05:42 045 1 gusting 1 16.7
2019-Sep-17 05:37 045 1 gusting 1 16.7
2019-Sep-17 05:31 045 0 gusting 2 16.7
2019-Sep-17 05:29 045 0 gusting 2 16.1
2019-Sep-17 05:24 068 0 gusting 2 16.1
2019-Sep-17 05:18 090 1 gusting 1 16.1
2019-Sep-17 05:15 16.1
2019-Sep-17 05:10 023 1 gusting 2 16.1
2019-Sep-17 05:04 023 0 gusting 0 16.1
2019-Sep-17 04:59 045 0 gusting 1 16.1
2019-Sep-17 04:54 023 0 gusting 0 16.1
2019-Sep-17 04:49 16.1
2019-Sep-17 04:43 315 0 gusting 0 16.1
2019-Sep-17 04:37 16.1
2019-Sep-17 04:35 16.1
2019-Sep-17 04:29 16.1
2019-Sep-17 04:23 338 0 gusting 0 16.1
2019-Sep-17 04:17 293 0 gusting 0 16.1
2019-Sep-17 04:11 303 0 gusting 1 16.1
2019-Sep-17 04:06 315 0 gusting 0 16.1
2019-Sep-17 04:03 16.1
2019-Sep-17 03:59 338 1 gusting 1 16.1
2019-Sep-17 03:54 16.1
2019-Sep-17 03:49 16.1
2019-Sep-17 03:43 338 0 gusting 1 16.1
2019-Sep-17 03:40 270 0 gusting 0 16.1
2019-Sep-17 03:34 293 0 gusting 1 16.1
2019-Sep-17 03:29 270 0 gusting 0 16.1
2019-Sep-17 03:24 270 0 gusting 0 16.1
2019-Sep-17 03:19 270 0 gusting 2 16.1
2019-Sep-17 03:14 270 0 gusting 0 16.1
2019-Sep-17 03:09 293 0 gusting 2 16.1
2019-Sep-17 03:03 270 0 gusting 0 16.1
2019-Sep-17 02:58 248 0 gusting 0 16.1
2019-Sep-17 02:52 248 0 gusting 0 16.1
2019-Sep-17 02:47 248 0 gusting 0 16.1
2019-Sep-17 02:42 315 0 gusting 0 16.1
2019-Sep-17 02:37 248 0 gusting 2 16.1
2019-Sep-17 02:34 293 0 gusting 1 16.1
2019-Sep-17 02:29 293 0 gusting 0 16.1
2019-Sep-17 02:23 293 0 gusting 0 16.1
2019-Sep-17 02:18 315 0 gusting 0 16.1
2019-Sep-17 02:14 293 0 gusting 1 16.1
2019-Sep-17 02:09 293 0 gusting 1 16.1
2019-Sep-17 02:03 315 16.1
2019-Sep-17 01:55 331 0 gusting 1 16.1
2019-Sep-17 01:49 315 0 gusting 1 16.1
2019-Sep-17 01:44 293 0 gusting 0 16.1
2019-Sep-17 01:39 315 0 gusting 1 16.1
2019-Sep-17 01:34 293 0 gusting 0 16.1
2019-Sep-17 01:29 293 0 gusting 0 16.1
2019-Sep-17 01:23 293 0 gusting 0 16.1
2019-Sep-17 01:18 270 0 gusting 0 16.1
2019-Sep-17 01:13 248 0 gusting 0 16.1
2019-Sep-17 01:08 293 0 gusting 0 16.1
2019-Sep-17 01:03 270 0 gusting 0 16.1
2019-Sep-17 00:59 338 0 gusting 1 16.1
2019-Sep-17 00:53 338 0 gusting 0 16.1
2019-Sep-17 00:48 338 0 gusting 0 16.1
2019-Sep-17 00:43 338 0 gusting 0 16.1
2019-Sep-17 00:37 270 16.1
2019-Sep-17 00:32 338 16.1
2019-Sep-17 00:27 293 16.1
2019-Sep-17 00:25 338 16.1
2019-Sep-17 00:16 293 16.1
2019-Sep-17 00:14 338 16.1
2019-Sep-17 00:08 338 16.1
2019-Sep-17 00:03 338 16.1
2019-Sep-16 23:56 16.1
2019-Sep-16 23:51 338 0 gusting 0 16.1
2019-Sep-16 23:45 338 0 gusting 2 16.1
2019-Sep-16 23:44 293 0 gusting 2 16.1
2019-Sep-16 23:39 023 1 gusting 1 16.1
2019-Sep-16 23:34 16.1
2019-Sep-16 23:28 315 1 gusting 1 16.1
2019-Sep-16 23:23 338 1 gusting 1 16.1
2019-Sep-16 23:18 045 1 gusting 2 16.1
2019-Sep-16 23:13 16.1
2019-Sep-16 23:07 16.1
2019-Sep-16 23:02 338 1 gusting 4 16.1
2019-Sep-16 22:57 315 1 gusting 1 16.1
2019-Sep-16 22:51 315 2 gusting 2 16.1
2019-Sep-16 22:47 023 2 gusting 3 16.1
2019-Sep-16 22:41 309 2 gusting 5 16.1
2019-Sep-16 22:39 16.1
2019-Sep-16 22:34 338 2 gusting 2 16.1
2019-Sep-16 22:29 270 1 gusting 5 16.1
2019-Sep-16 22:23 16.1
2019-Sep-16 22:19 16.1
2019-Sep-16 22:14 315 1 gusting 1 16.1
2019-Sep-16 22:09 293 2 gusting 2 16.1
2019-Sep-16 22:04 293 1 gusting 2 16.1
2019-Sep-16 21:59 338 2 gusting 2 16.1
2019-Sep-16 21:54 315 2 gusting 2 16.1
2019-Sep-16 21:49 293 2 gusting 2 16.1
2019-Sep-16 21:43 270 1 gusting 2 16.1
2019-Sep-16 21:39 16.1
2019-Sep-16 21:34 16.1
2019-Sep-16 21:28 023 1 gusting 3 16.1
2019-Sep-16 21:23 15.6
2019-Sep-16 21:18 15.6
2019-Sep-16 21:13 023 1 gusting 2 15.6
2019-Sep-16 21:07 023 1 gusting 3 15.6
2019-Sep-16 21:02 15.6
2019-Sep-16 20:57 338 1 gusting 2 15.6
2019-Sep-16 20:51 293 1 gusting 2 15.6
2019-Sep-16 20:46 293 1 gusting 1 15.6
2019-Sep-16 20:40 313 1 gusting 2 15.6
2019-Sep-16 20:39 338 1 gusting 1 15.6
2019-Sep-16 20:34 16.1
2019-Sep-16 20:30 338 1 gusting 2 16.1
2019-Sep-16 20:24 338 0 gusting 1 16.1
2019-Sep-16 20:19 338 0 gusting 1 16.1
2019-Sep-16 20:14 293 0 gusting 0 16.1
2019-Sep-16 20:09 315 0 gusting 1 16.1
2019-Sep-16 20:04 315 0 gusting 0 16.1
2019-Sep-16 19:59 293 1 gusting 1 16.1
2019-Sep-16 19:54 315 1 gusting 1 16.7
2019-Sep-16 19:49 315 1 gusting 2 16.7
2019-Sep-16 19:44 338 1 gusting 1 16.7
2019-Sep-16 19:39 293 1 gusting 1 16.7
2019-Sep-16 19:34 293 1 gusting 1 16.7
2019-Sep-16 19:29 315 1 gusting 1 16.7
2019-Sep-16 19:24 338 1 gusting 1 16.7
2019-Sep-16 19:19 023 1 gusting 2 17.2
2019-Sep-16 19:14 17.2
2019-Sep-16 19:09 17.2
2019-Sep-16 19:03 338 1 gusting 2 17.2
2019-Sep-16 18:58 17.2
2019-Sep-16 18:53 338 2 gusting 3 17.2
2019-Sep-16 18:48 17.8
2019-Sep-16 18:43 17.8
2019-Sep-16 18:38 293 2 gusting 4 17.8
2019-Sep-16 18:33 293 2 gusting 3 17.8
2019-Sep-16 18:28 293 1 gusting 1 17.8
2019-Sep-16 18:23 315 1 gusting 4 17.8
2019-Sep-16 18:17 315 1 gusting 1 17.8
2019-Sep-16 18:12 293 1 gusting 2 18.3
2019-Sep-16 18:07 293 1 gusting 1 18.3
2019-Sep-16 18:02 293 1 gusting 2 18.3
2019-Sep-16 17:59 338 1 gusting 1 18.3
2019-Sep-16 17:52 338 0 gusting 1 18.9
2019-Sep-16 17:47 293 1 gusting 1 18.9
2019-Sep-16 17:42 293 1 gusting 2 18.9
2019-Sep-16 17:36 293 2 gusting 2 19.4
2019-Sep-16 17:31 315 2 gusting 2 19.4
2019-Sep-16 17:26 293 2 gusting 4 19.4
2019-Sep-16 17:21 315 2 gusting 2 19.4
2019-Sep-16 17:20 339 3 gusting 6 19.4
2019-Sep-16 17:15 023 3 gusting 3 19.4
2019-Sep-16 17:10 338 3 gusting 6 19.4
2019-Sep-16 17:04 19.4
2019-Sep-16 16:59 315 3 gusting 3 20.0
2019-Sep-16 16:54 293 4 gusting 5 20.0
2019-Sep-16 16:49 315 4 gusting 6 20.0
2019-Sep-16 16:43 315 3 gusting 3 20.0
2019-Sep-16 16:38 315 4 gusting 5 20.0
2019-Sep-16 16:33 270 4 gusting 5 20.0
2019-Sep-16 16:28 293 5 gusting 5 20.0
2019-Sep-16 16:23 293 5 gusting 7 20.6
2019-Sep-16 16:18 293 4 gusting 6 20.6
2019-Sep-16 16:13 315 4 gusting 8 20.6
2019-Sep-16 16:08 023 3 gusting 6 21.1
2019-Sep-16 16:03 248 4 gusting 4 21.1
2019-Sep-16 15:58 293 3 gusting 3 21.1
2019-Sep-16 15:54 338 3 gusting 6 21.1
2019-Sep-16 15:49 20.6
2019-Sep-16 15:44 023 4 gusting 4 20.6
2019-Sep-16 15:39 023 5 gusting 6 20.6
2019-Sep-16 15:33 023 5 gusting 6 21.1
2019-Sep-16 15:28 21.1
2019-Sep-16 15:23 21.1
2019-Sep-16 15:18 023 4 gusting 4 21.1
2019-Sep-16 15:13 023 5 gusting 6 21.1
2019-Sep-16 15:08 21.7
2019-Sep-16 15:02 045 3 gusting 6 21.7
2019-Sep-16 14:58 315 3 gusting 4 21.7
2019-Sep-16 14:53 21.7
2019-Sep-16 14:47 293 3 gusting 3 21.7
2019-Sep-16 14:41 21.7
2019-Sep-16 14:36 22.2
2019-Sep-16 14:31 338 5 gusting 5 22.2
2019-Sep-16 14:28 338 5 gusting 5 22.2
2019-Sep-16 14:25 270 5 gusting 6 22.2
2019-Sep-16 14:19 338 5 gusting 6 22.8
2019-Sep-16 14:14 315 4 gusting 6 22.8
2019-Sep-16 14:09 023 4 gusting 4 22.8
2019-Sep-16 14:04 315 5 gusting 6 23.3
2019-Sep-16 13:59 23.3
2019-Sep-16 13:55 338 4 gusting 5 23.3
2019-Sep-16 13:49 338 3 gusting 5 23.3
2019-Sep-16 13:44 23.3
2019-Sep-16 13:38 293 3 gusting 5 23.3
2019-Sep-16 13:33 23.3
2019-Sep-16 13:28 023 4 gusting 4 23.3
2019-Sep-16 13:23 23.3
2019-Sep-16 13:17 293 3 gusting 4 23.3
2019-Sep-16 13:12 293 3 gusting 5 23.3
2019-Sep-16 13:07 293 4 gusting 4 23.3
2019-Sep-16 13:02 315 3 gusting 6 23.3
2019-Sep-16 12:56 293 3 gusting 4 23.3
2019-Sep-16 12:51 315 3 gusting 3 23.3
2019-Sep-16 12:46 293 3 gusting 7 23.3
2019-Sep-16 12:41 270 3 gusting 4 23.3
2019-Sep-16 12:39 293 3 gusting 4 23.3
2019-Sep-16 12:34 270 2 gusting 2 23.3
2019-Sep-16 12:25 270 2 gusting 2 22.8
2019-Sep-16 12:24 315 2 gusting 2 22.8
2019-Sep-16 12:19 338 2 gusting 6 22.8
2019-Sep-16 12:15 293 2 gusting 4 22.8
2019-Sep-16 12:09 270 3 gusting 3 22.8
2019-Sep-16 12:04 270 3 gusting 3 22.8
2019-Sep-16 11:59 248 3 gusting 3 22.8
2019-Sep-16 11:54 338 2 gusting 4 22.8
2019-Sep-16 11:49 315 1 gusting 4 22.8
2019-Sep-16 11:44 270 2 gusting 2 22.2
2019-Sep-16 11:39 293 2 gusting 3 22.2
2019-Sep-16 11:34 225 2 gusting 2 21.7
2019-Sep-16 11:28 270 2 gusting 2 21.7
2019-Sep-16 11:23 338 2 gusting 2 21.7
2019-Sep-16 11:18 21.1
2019-Sep-16 11:12 315 3 gusting 5 21.1
2019-Sep-16 11:07 248 2 gusting 2 21.1
2019-Sep-16 11:02 293 1 gusting 2 20.6
2019-Sep-16 10:56 270 1 gusting 1 20.6
2019-Sep-16 10:55 339 1 gusting 5 20.6
2019-Sep-16 10:50 338 1 gusting 3 20.6
2019-Sep-16 10:44 20.0
2019-Sep-16 10:39 338 1 gusting 4 20.0
2019-Sep-16 10:34 338 1 gusting 1 19.4
2019-Sep-16 10:29 293 1 gusting 2 19.4
2019-Sep-16 10:23 338 1 gusting 2 19.4
2019-Sep-16 10:18 315 1 gusting 1 18.9
2019-Sep-16 10:13 293 1 gusting 2 18.9
2019-Sep-16 10:08 315 1 gusting 1 18.9
2019-Sep-16 10:04 248 1 gusting 1 18.3
2019-Sep-16 09:59 270 0 gusting 3 18.3
2019-Sep-16 09:55 270 0 gusting 2 18.3
2019-Sep-16 09:49 270 1 gusting 1 17.8
2019-Sep-16 09:43 270 1 gusting 2 17.8
2019-Sep-16 09:38 248 1 gusting 2 17.8
2019-Sep-16 09:32 293 1 gusting 2 17.2
2019-Sep-16 09:27 293 1 gusting 2 17.2
2019-Sep-16 09:22 293 2 gusting 2 17.2
2019-Sep-16 09:16 338 1 gusting 1 17.2
2019-Sep-16 09:11 293 1 gusting 1 16.7
2019-Sep-16 09:06 16.7
2019-Sep-16 09:05 315 0 gusting 1 16.7
2019-Sep-16 08:59 270 1 gusting 1 16.1
2019-Sep-16 08:54 225 1 gusting 2 16.1
2019-Sep-16 08:49 293 0 gusting 1 16.1
2019-Sep-16 08:44 338 0 gusting 1 15.6
2019-Sep-16 08:39 315 0 gusting 0 15.6
2019-Sep-16 08:34 293 0 gusting 1 15.6
2019-Sep-16 08:25 293 0 gusting 3 15.0
2019-Sep-16 08:24 338 0 gusting 0 15.0
2019-Sep-16 08:20 293 0 gusting 1 15.0
2019-Sep-16 08:15 270 1 gusting 1 14.4
2019-Sep-16 08:09 293 1 gusting 1 14.4
2019-Sep-16 08:04 315 1 gusting 1 14.4
2019-Sep-16 07:59 293 1 gusting 1 14.4
2019-Sep-16 07:53 293 1 gusting 2 13.9
2019-Sep-16 07:48 315 1 gusting 1 13.9
2019-Sep-16 07:43 270 1 gusting 1 13.3
2019-Sep-16 07:37 293 0 gusting 1 13.3
2019-Sep-16 07:32 270 0 gusting 0 13.3
2019-Sep-16 07:27 225 1 gusting 1 12.8
2019-Sep-16 07:22 225 0 gusting 2 12.8
2019-Sep-16 07:17 293 0 gusting 0 12.2
2019-Sep-16 07:11 270 0 gusting 1 12.2
2019-Sep-16 07:06 270 0 gusting 1 12.2
2019-Sep-16 07:01 270 0 gusting 0 12.2
2019-Sep-16 06:56 248 0 gusting 0 11.7
2019-Sep-16 06:50 225 0 gusting 0 11.7
2019-Sep-16 06:45 248 0 gusting 1 11.7
2019-Sep-16 06:44 270 0 gusting 0 11.7
2019-Sep-16 06:39 270 0 gusting 0 11.7
2019-Sep-16 06:34 11.1
2019-Sep-16 06:29 338 0 gusting 0 11.1
2019-Sep-16 06:24 248 0 gusting 0 11.1
2019-Sep-16 06:19 293 0 gusting 0 11.1
2019-Sep-16 06:14 293 0 gusting 0 11.1
2019-Sep-16 06:09 225 11.1
2019-Sep-16 06:04 225 10.6
2019-Sep-16 05:59 270 10.6
2019-Sep-16 05:54 270 10.6
2019-Sep-16 05:49 315 10.6
2019-Sep-16 05:43 315 10.6
2019-Sep-16 05:38 315 10.6
2019-Sep-16 05:33 270 10.6
2019-Sep-16 05:28 293 10.0
2019-Sep-16 05:23 315 10.0
2019-Sep-16 05:18 293 10.0
2019-Sep-16 05:13 315 10.0
2019-Sep-16 05:08 293 9.4
2019-Sep-16 05:02 315 9.4
2019-Sep-16 04:57 293 9.4
2019-Sep-16 04:54 9.4
2019-Sep-16 04:49 9.4
2019-Sep-16 04:44 8.9
2019-Sep-16 04:39 8.9
2019-Sep-16 04:34 8.9
2019-Sep-16 04:29 8.9
2019-Sep-16 04:23 8.9
2019-Sep-16 04:18 8.9
2019-Sep-16 04:13 8.9
2019-Sep-16 04:08 8.9
2019-Sep-16 04:03 023 8.9
2019-Sep-16 03:58 8.9
2019-Sep-16 03:53 8.9
2019-Sep-16 03:47 315 8.9
2019-Sep-16 03:42 315 8.9
2019-Sep-16 03:37 315 8.9
2019-Sep-16 03:32 315 9.4
2019-Sep-16 03:27 315 9.4
2019-Sep-16 03:21 9.4
2019-Sep-16 03:16 9.4
2019-Sep-16 03:11 023 0 gusting 0 9.4
2019-Sep-16 03:06 9.4
2019-Sep-16 03:01 9.4
2019-Sep-16 02:56 9.4
2019-Sep-16 02:51 9.4
2019-Sep-16 02:46 9.4
2019-Sep-16 02:40 9.4
2019-Sep-16 02:34 338 10.0
2019-Sep-16 02:29 293 10.0
2019-Sep-16 02:24 293 10.0
2019-Sep-16 02:19 293 10.0
2019-Sep-16 02:14 315 10.0
2019-Sep-16 02:09 315 10.0
2019-Sep-16 02:04 315 10.6